TimeCST,TemperatureF,Dew PointF,Humidity,Sea Level PressureIn,VisibilityMPH,Wind Direction,Wind SpeedMPH,Gust SpeedMPH,PrecipitationIn,Events,Conditions,WindDirDegrees,DateUTC
12:53 AM,-0.9,-2.9,91,30.41,8.0,Calm,Calm,-,N/A,,Clear,0,2013-02-09 06:53:00
1:53 AM,-0.9,-4.0,87,30.42,8.0,Calm,Calm,-,N/A,,Clear,0,2013-02-09 07:53:00
2:53 AM,-0.0,-2.9,88,30.43,8.0,WSW,4.6,-,N/A,,Clear,240,2013-02-09 08:53:00
3:53 AM,-2.0,-2.9,96,30.41,7.0,West,3.5,-,N/A,,Scattered Clouds,270,2013-02-09 09:53:00
4:02 AM,-0.4,-2.2,92,30.36,8.0,West,3.5,-,N/A,,Mostly Cloudy,280,2013-02-09 10:02:00
4:53 AM,6.1,5.0,95,30.40,9.0,Calm,Calm,-,N/A,,Overcast,0,2013-02-09 10:53:00
5:53 AM,7.0,6.1,96,30.40,9.0,Calm,Calm,-,N/A,,Overcast,0,2013-02-09 11:53:00
6:53 AM,6.1,3.0,87,30.41,9.0,Calm,Calm,-,N/A,,Overcast,0,2013-02-09 12:53:00
7:53 AM,8.1,6.1,92,30.41,8.0,Calm,Calm,-,N/A,,Overcast,0,2013-02-09 13:53:00
8:53 AM,12.9,12.0,96,30.39,5.0,South,3.5,-,N/A,,Overcast,180,2013-02-09 14:53:00
9:53 AM,18.0,18.0,100,30.37,5.0,South,3.5,-,N/A,,Overcast,180,2013-02-09 15:53:00
10:53 AM,21.9,19.0,89,30.35,7.0,South,12.7,-,N/A,,Overcast,180,2013-02-09 16:53:00
11:53 AM,26.1,21.0,81,30.32,10.0,South,18.4,23.0,N/A,,Overcast,180,2013-02-09 17:53:00
12:53 PM,27.0,21.9,81,30.29,10.0,South,23.0,-,N/A,,Overcast,190,2013-02-09 18:53:00
1:53 PM,27.0,21.9,81,30.27,10.0,South,16.1,-,N/A,,Overcast,190,2013-02-09 19:53:00
2:53 PM,27.0,21.9,81,30.25,9.0,South,15.0,25.3,N/A,,Overcast,190,2013-02-09 20:53:00
3:53 PM,27.0,21.9,81,30.24,10.0,South,11.5,-,N/A,,Overcast,180,2013-02-09 21:53:00
4:53 PM,27.0,21.0,78,30.23,10.0,South,10.4,-,N/A,,Overcast,190,2013-02-09 22:53:00
5:53 PM,27.0,21.9,81,30.21,10.0,South,10.4,-,N/A,,Overcast,190,2013-02-09 23:53:00
6:53 PM,27.0,21.9,81,30.20,10.0,South,9.2,-,N/A,,Overcast,190,2013-02-10 00:53:00
7:53 PM,27.0,23.0,85,30.18,9.0,SSW,9.2,-,N/A,,Overcast,200,2013-02-10 01:53:00
8:17 PM,24.8,21.2,86,30.13,9.0,South,6.9,-,N/A,,Partly Cloudy,190,2013-02-10 02:17:00
8:53 PM,19.0,17.1,92,30.18,7.0,SSW,4.6,-,N/A,,Clear,200,2013-02-10 02:53:00
9:53 PM,18.0,17.1,96,30.16,5.0,South,6.9,-,N/A,,Clear,190,2013-02-10 03:53:00
10:53 PM,18.0,17.1,96,30.14,2.5,Calm,Calm,-,N/A,,Clear,0,2013-02-10 04:53:00
11:14 PM,19.4,17.6,93,30.09,1.5,Calm,Calm,-,N/A,,Clear,0,2013-02-10 05:14:00
11:25 PM,19.4,19.4,100,30.09,2.5,Calm,Calm,-,N/A,,Clear,0,2013-02-10 05:25:00
11:41 PM,17.6,17.6,100,30.09,0.8,Calm,Calm,-,N/A,,Partly Cloudy,0,2013-02-10 05:41:00
11:51 PM,15.8,15.8,100,30.09,0.2,Calm,Calm,-,N/A,Fog,Light Freezing Fog,0,2013-02-10 05:51:00
11:53 PM,15.1,15.1,100,30.13,0.2,Calm,Calm,-,N/A,Fog,Light Freezing Fog,0,2013-02-10 05:53:00